Regional Weather Roundup
Issued by NWS

Home | Current Version | Previous Version | Text Only | Print | Product List | Glossary Off
Versions: 1 2 3 4 5 6 7 8 9 10 11 12 13 14 15 16 17 18 19 20 21 22 23 24 25 26 27 28 29 30 31 32 33 34 35 36 37 38 39 40 41 42 43 44 45 46 47 48 49 50

000
ASUS45 KCYS 291710
RWRWY

WYOMING REGIONAL WEATHER ROUNDUP
NATIONAL WEATHER SERVICE CHEYENNE WY
1100 AM MDT FRI MAY 29 2015

NOTE:  "FAIR" INDICATES FEW OR NO CLOUDS BELOW 12,000 FEET
WITH NO SIGNIFICANT WEATHER AND/OR OBSTRUCTIONS TO VISIBILITY.

WYZ001-291800-
YELLOWSTONE NATIONAL PARK

CITY           SKY/WX    TMP DP  RH WIND       PRES   REMARKS
LK YELLOWSTONE   N/A     45  37  73 CALM      30.36S
W YELLOWSTONE  NOT AVBL

$$
WYZ002>013-054>058-071-098>099-291800-
NORTHERN WYOMING

CITY           SKY/WX    TMP DP  RH WIND       PRES   REMARKS
JACKSON        CLOUDY    48  43  81 CALM      30.32S
CODY           CLOUDY    48  46  93 NE10      30.30S
GREYBULL       FAIR      60  44  55 NW16      30.25S
WORLAND        PTSUNNY   57  47  69 NW8       30.27S
SHERIDAN       CLOUDY    44  42  93 NE3       30.32S
BUFFALO        CLOUDY    46  44  93 NW15      30.31S
GILLETTE       FAIR      48  38  68 N15       30.29S
HULETT         CLOUDY    41  41 100 NW8       30.30S
NEWCASTLE      PTSUNNY   50  43  76 NW13G23   30.24R

$$
WYZ014>020-022>026-101>103-291800-
CENTRAL WYOMING

CITY           SKY/WX    TMP DP  RH WIND       PRES   REMARKS
BIG PINEY      FAIR      51  39  63 VRB3      30.34S
PINEDALE       PTSUNNY   50  39  66 S7        30.34S
DUBOIS         FAIR      52  37  58 E8        30.31S
LANDER         FAIR      55  45  68 VRB3      30.29S
RIVERTON       CLOUDY    54  43  66 N10       30.31R
CASPER         LGT RAIN  49  45  86 N13       30.31R
DOUGLAS        LGT RAIN  49  46  90 N17G23    30.27R

$$
WYZ021-027>030-104>119-291800-
SOUTHERN WYOMING

CITY           SKY/WX    TMP DP  RH WIND       PRES   REMARKS
EVANSTON       FAIR      55  39  54 VRB3      30.32S
KEMMERER       CLOUDY    55  37  50 E9        30.34S
FORT BRIDGER   CLOUDY    55  43  62 E5        30.35S
ROCK SPRINGS   FAIR      53  40  61 E3        30.33S
DIXON          CLOUDY    51  42  70 CALM      30.34R
RAWLINS        CLOUDY    50  41  71 N12       30.32R
SARATOGA       CLOUDY    48  37  66 W7        30.32S
LARAMIE        CLOUDY    48  39  71 N17       30.27S
CHEYENNE       PTSUNNY   56  39  53 N17G25    30.22S
TORRINGTON     CLOUDY    52  49  89 W15       30.18R
PINE BLUFFS    PTSUNNY   55  46  71 N17       30.21R

$$


USA.gov is the U.S. government's official web portal to all federal, state and local government web resources and services.